DateTimeUTC,F1_A11,F1_S11,BsB_S11,BsG_S11,BsR_S11,BbsB_S11,BbsG_S11,BbsR_S11,BaB_A11,BaG_A11,BaR_A11,Tu_S11,T_S11,Uu_S11,U_S11,P_S11,T1_A11
2021-09-28T05:00:00Z,00000200,21000000,,,,,,,-000.21,-000.11,-000.08,15.9,23.1,,00.0,0673.1,30.8
2021-09-28T05:01:00Z,00000200,21000000,,,,,,,-000.22,-000.04,0000.18,16.0,23.1,,00.0,0673.1,30.8
2021-09-28T05:02:00Z,00000200,21000000,,,,,,,0000.36,0000.12,-000.42,16.0,23.1,,00.0,0673.1,30.8
2021-09-28T05:03:00Z,00000200,61000000,,,,,,,-000.21,0000.00,0000.25,16.0,23.2,,00.0,0673.1,30.8
2021-09-28T05:04:00Z,00000200,41000000,0001.63,0000.77,0000.66,0000.18,-000.00,0000.11,0000.35,0000.31,0000.23,16.3,23.0,,00.0,0674.0,30.8
2021-09-28T05:05:00Z,00000200,01000000,0001.90,0000.46,0000.51,0000.12,0000.16,0000.14,0000.09,0000.23,0000.16,16.4,23.0,,00.0,0674.1,30.8
2021-09-28T05:06:00Z,00000200,01000000,0000.93,0000.68,0000.78,0000.56,0000.16,0000.54,0000.33,0000.05,-000.08,16.4,23.0,,00.0,0674.1,30.8
2021-09-28T05:07:00Z,00000200,01000000,0001.26,0000.67,0000.70,-000.12,-000.24,0000.05,0000.28,0000.15,0000.16,16.3,23.0,,00.0,0674.1,30.8
2021-09-28T05:08:00Z,00000200,01000000,0001.06,0000.78,0000.58,0000.02,0000.35,0000.14,-000.27,-000.39,-000.22,16.2,22.9,,00.0,0674.0,30.8
2021-09-28T05:09:00Z,00000200,01000000,0001.05,0000.84,0000.65,0000.77,-000.13,0000.20,0000.41,0000.37,0000.09,16.1,22.8,,00.0,0674.0,30.8
2021-09-28T05:10:00Z,00000200,01000000,0000.81,0000.69,0000.61,0000.34,0000.11,0000.23,0000.23,0000.22,0000.41,16.0,22.8,,00.0,0674.1,30.8
2021-09-28T05:11:00Z,00000200,01000000,0000.27,0000.68,0000.55,0000.26,0000.06,0000.20,0000.37,0000.42,0000.18,16.0,22.8,,00.0,0674.1,30.8
2021-09-28T05:12:00Z,00000200,01000000,0001.21,0000.83,0000.74,-000.06,0000.30,0000.33,0000.15,-000.00,0000.08,16.0,22.8,,00.0,0674.1,30.8
2021-09-28T05:13:00Z,00000200,01000000,0000.76,0000.63,0000.86,0000.57,-000.01,0000.36,0000.18,0000.38,0000.46,16.0,22.8,,00.0,0674.1,30.8
2021-09-28T05:14:00Z,00000200,01000000,0000.50,0000.38,0000.65,0000.51,0000.28,0000.12,0000.53,0000.37,0000.07,16.1,22.8,,00.0,0674.1,30.8
2021-09-28T05:15:00Z,00000200,01000000,0000.38,0000.61,0000.62,0000.43,0000.04,0000.17,0000.15,0000.21,0000.40,16.1,22.8,,00.0,0674.0,30.8
2021-09-28T05:16:00Z,00000200,01000000,0000.88,0000.38,0000.53,0000.92,0000.14,0000.11,0000.17,0000.01,0000.11,16.1,22.8,,00.0,0674.0,30.8
2021-09-28T05:17:00Z,00000200,01000000,0000.19,0000.40,0000.62,-000.20,-000.01,0000.42,0000.44,0000.27,0000.11,16.2,22.8,,00.0,0674.0,30.8
2021-09-28T05:18:00Z,00000200,01000000,0000.95,0000.81,0000.57,0000.95,0000.22,0000.43,0000.31,0000.50,0000.31,16.3,22.8,,00.0,0674.0,30.8
2021-09-28T05:19:00Z,00000200,01000000,0000.74,0000.77,0000.59,0000.51,-000.04,0000.13,-000.03,0000.33,0000.18,16.3,22.9,,00.0,0674.0,30.8
2021-09-28T05:20:00Z,00000200,01000000,0001.21,0000.59,0000.29,0000.44,0000.43,0000.07,0000.15,0000.05,-000.16,16.3,22.9,,00.0,0674.1,30.8
2021-09-28T05:21:00Z,00000200,01000000,0000.79,0000.33,0000.37,0001.29,-000.01,0000.17,0000.19,-000.13,0000.12,16.3,22.9,,00.0,0674.0,30.8
2021-09-28T05:22:00Z,00000200,01000000,-000.14,0000.76,0000.41,-000.05,0000.12,0000.19,-000.24,-000.12,-000.05,16.2,22.8,,00.0,0674.0,30.8
2021-09-28T05:23:00Z,00000200,01000000,0000.99,0000.89,0000.60,-000.12,0000.15,0000.30,0000.09,-000.06,-000.10,16.1,22.8,,00.0,0674.0,30.8
2021-09-28T05:24:00Z,00000200,01000000,0001.13,0000.65,0000.64,0000.43,0000.29,0000.12,0000.34,0000.18,0000.00,16.0,22.7,,00.0,0674.0,30.8
2021-09-28T05:25:00Z,00000200,01000000,0000.34,0000.62,0000.37,0000.42,0000.11,-000.03,0000.28,0000.47,0000.38,15.9,22.7,,00.0,0674.0,30.8
2021-09-28T05:26:00Z,00000200,01000000,0001.81,0000.46,0000.67,0000.66,0000.04,0000.17,0000.36,0000.09,0000.11,15.8,22.6,,00.0,0674.0,30.8
2021-09-28T05:27:00Z,00000200,01000000,0000.57,0000.46,0000.46,0000.49,-000.25,-000.06,0000.41,0000.45,0000.32,15.8,22.6,,00.0,0674.0,30.8
2021-09-28T05:28:00Z,00000200,01000000,0000.81,0000.55,0000.35,0000.40,0000.28,0000.13,0000.34,0000.30,0000.28,15.9,22.6,,00.0,0674.0,30.8
2021-09-28T05:29:00Z,00000200,01000000,0001.36,0000.85,0000.15,0000.33,0000.08,0000.11,-000.00,0000.14,0000.14,15.9,22.6,,00.0,0674.0,30.8
2021-09-28T05:30:00Z,00000200,01000000,0000.74,0000.41,0000.23,0000.75,-000.01,-000.07,0000.07,0000.25,0000.11,16.0,22.6,,00.0,0674.0,30.8
2021-09-28T05:31:00Z,00000200,01000000,0000.93,0000.52,0000.60,-000.08,-000.12,0000.04,0000.45,0000.36,0000.19,16.0,22.7,,00.0,0674.0,30.8
2021-09-28T05:32:00Z,00000200,01000000,0000.60,0000.73,0000.42,-000.25,0000.31,0000.13,0000.25,0000.11,0000.42,16.1,22.7,,00.0,0674.0,30.8
2021-09-28T05:33:00Z,00000200,01000000,0001.53,0000.69,0000.25,0000.48,0000.21,0000.17,0000.36,0000.28,0000.19,16.1,22.7,,00.0,0674.0,30.8
2021-09-28T05:34:00Z,00000200,01000000,0001.09,0000.98,0000.40,0000.40,-000.02,0000.18,0000.16,0000.36,0000.06,16.2,22.7,,00.0,0674.0,30.8
2021-09-28T05:35:00Z,00000200,01000000,0001.57,0001.05,0000.63,-000.12,0000.19,0000.05,0000.41,-000.01,0000.02,16.2,22.7,,00.0,0674.0,30.8
2021-09-28T05:36:00Z,00000200,01000000,0000.39,0000.56,0000.62,-000.34,0000.02,0000.17,-000.00,0000.28,0000.41,16.3,22.7,,00.0,0674.0,30.8
2021-09-28T05:37:00Z,00000200,01000000,0000.19,0000.64,0000.62,-000.30,-000.05,0000.28,0000.15,0000.13,-000.30,16.3,22.8,,00.0,0674.0,30.8
2021-09-28T05:38:00Z,00000200,01000000,0000.84,0000.64,0000.64,0000.27,0000.38,0000.20,0000.01,0000.17,0000.54,16.3,22.8,,00.0,0674.0,30.8
2021-09-28T05:39:00Z,00000200,01000000,0001.06,0000.76,0000.60,0000.05,0000.35,0000.27,0000.12,-000.28,-000.21,16.2,22.8,,00.0,0674.0,30.8
2021-09-28T05:40:00Z,00000200,01000000,0000.63,0000.67,0000.83,0000.07,0000.01,0000.18,0000.25,0000.57,0000.08,16.1,22.7,,00.0,0674.0,30.8
2021-09-28T05:41:00Z,00000200,01000000,0001.24,0000.65,0000.66,0000.27,0000.30,0000.27,0000.34,0000.16,0000.19,16.1,22.7,,00.0,0674.0,30.8
2021-09-28T05:42:00Z,00000200,01000000,0000.91,0000.77,0000.43,0000.24,0000.29,0000.19,0000.22,0000.08,0000.12,16.1,22.7,,00.0,0674.1,30.8
2021-09-28T05:43:00Z,00000200,01000000,0000.99,0000.38,0000.39,0000.35,0000.00,0000.03,-000.00,0000.36,0000.03,16.2,22.7,,00.0,0674.0,30.8
2021-09-28T05:44:00Z,00000200,01000000,0000.87,0000.69,0000.47,0000.44,0000.25,0000.22,0000.18,0000.01,0000.36,16.2,22.7,,00.0,0674.1,30.8
2021-09-28T05:45:00Z,00000200,01000000,0000.59,0000.69,0000.49,0000.72,-000.24,0000.17,0000.39,0000.37,0000.09,16.2,22.7,,00.0,0674.1,30.8
2021-09-28T05:46:00Z,00000200,01000000,0001.03,0000.90,0000.33,-000.59,0000.09,0000.25,0000.37,0000.21,0000.29,16.3,22.8,,00.0,0674.1,30.8
2021-09-28T05:47:00Z,00000200,01000000,0001.21,0000.60,0000.82,-000.24,0000.17,0000.17,0000.07,0000.31,0000.25,16.3,22.8,,00.0,0674.1,30.8
2021-09-28T05:48:00Z,00000200,01000000,0000.88,0000.97,0000.90,0000.59,0000.21,0000.16,0000.19,0000.11,-000.15,16.3,22.8,,00.0,0674.1,30.8
2021-09-28T05:49:00Z,00000200,01000000,0000.37,0000.41,0000.75,0000.13,0000.34,-000.08,0000.39,0000.16,0000.22,16.4,22.8,,00.0,0674.0,30.8
2021-09-28T05:50:00Z,00000200,01000000,0000.94,0000.67,0000.50,0000.35,0000.16,0000.37,0000.41,0000.31,0000.50,16.4,22.8,,00.0,0674.1,30.8
2021-09-28T05:51:00Z,00000200,01000000,0000.43,0000.54,0000.28,0000.87,0000.06,-000.06,0000.02,0000.09,-000.11,16.5,22.8,,00.0,0674.1,30.8
2021-09-28T05:52:00Z,00000200,01000000,0000.53,0000.54,0000.64,0000.13,0000.29,0000.26,0000.16,0000.23,0000.17,16.4,22.9,,00.0,0674.1,30.8
2021-09-28T05:53:00Z,00000200,01000000,0000.86,0000.77,0000.44,0000.28,0000.37,0000.04,0000.27,0000.03,-000.22,16.3,22.8,,00.0,0674.0,30.8
2021-09-28T05:54:00Z,00000200,01000000,0000.74,0000.92,0000.93,0000.03,0000.03,0000.17,0000.03,0000.11,0000.05,16.3,22.8,,00.0,0674.0,30.8
2021-09-28T05:55:00Z,00000200,01000000,0000.72,0000.53,0000.69,0000.81,0000.18,0000.38,0000.01,0000.27,0000.31,16.2,22.7,,00.0,0674.0,30.8
2021-09-28T05:56:00Z,00000200,01000000,0000.56,0000.93,0000.59,-000.13,0000.31,0000.06,0000.54,0000.46,0000.39,16.1,22.7,,00.0,0674.0,30.8
2021-09-28T05:57:00Z,00000200,41000000,,,,,,,0000.86,0000.64,0000.74,16.1,22.7,,00.0,0674.1,30.8
2021-09-28T05:58:00Z,00000200,61000000,,,,,,,-000.45,-000.53,-000.62,15.8,22.9,,00.0,0673.0,30.8
2021-09-28T05:59:00Z,00000200,21000000,,,,,,,-000.05,0000.05,0000.18,15.8,23.0,,00.0,0673.0,30.8
